[ hide orbit diagram ]
For accurate long-term ephemerides, please instead use our Horizons system.This orbit viewer was implemented using two-body methods, and hence should not be used for determining accurate long-term trajectories (over several years or decades) or planetary encounter circumstances.
Orbital Elements at Epoch 2459000.5 (2020-May-31.0) TDB
Reference: JPL 24 (heliocentric ecliptic J2000)
Element | Value | Uncertainty (1-sigma) | Units |
e | .1040714176321181 | 8.3719e-08 | |
a | 5.227620153781244 | 3.161e-07 | au |
q | 4.683574313534998 | 6.9921e-07 | au |
i | 17.77733444343546 | 8.1908e-06 | deg |
node | 169.9112971829442 | 1.4904e-05 | deg |
peri | 287.1629300582285 | 5.2358e-05 | deg |
M | 268.9079787352709 | 5.6521e-05 | deg |
tp | 2460105.169340000666 (2023-Jun-09.66934000) | 0.00074131 | TDB |
period | 4365.705765211979 11.95 | 0.00039598 1.084e-06 | d yr |
n | .08246089392204378 | 7.4793e-09 | deg/d |
Q | 5.771665994027488 | 3.49e-07 | au |
|
| | Orbit Determination Parameters
Additional Information
|
[ show covariance matrix ]
Physical Parameter Table
Parameter |
Symbol |
Value |
Units |
Sigma |
Reference |
Notes |
absolute magnitude |
H |
13.1 |
|
n/a |
MPO455774 |
|
|
390337 (2013 CE58) Discovered 2008-Sep-04 by Spacewatch at Kitt Peak |
Reference: | Last Updated: 2014-03-21 |
|
Alternate Designations
2013 CE58 = 2008 RV63 = 2010 AN137 |
|
|